This demonstration page uses our WeatherBlox Daily Observations layout. Learn more.

40.92945, -100.16068

Hourly Observations for June 8, 2015

Temp ( °F °C ) Dew Point ( °F °C ) Humidity (%) Winds ( mph kmh ) Pressure ( in mb ) Visibility ( mi km ) Precip ( " mm )
12:00 am 00:00 Clear 61 16.3 58 14.6 90 90 NW 7 11 29.97 1015 10 16.0934 N/A
12:15 am 00:15 Clear 62 16.5 59 14.8 90 90 NW 6 9 29.94 1014 10 16.0934 N/A
12:35 am 00:35 Clear 62 16.6 59 14.8 89 89 Calm 29.94 1014 10 16.0934 N/A
12:55 am 00:55 Clear 61 16.1 58 14.6 91 91 WNW 3 6 29.97 1015 10 16.0934 N/A
1:15 am 01:15 Clear 61 16.2 58 14.5 90 90 WNW 7 11 29.97 1015 10 16.0934 N/A
1:35 am 01:35 Clear 61 15.9 58 14.4 91 91 WNW 5 7 29.97 1015 10 16.0934 N/A
1:55 am 01:55 Clear 60 15.7 58 14.3 91 91 Calm 29.97 1015 10 16.0934 N/A
2:15 am 02:15 Clear 58 14.6 56 13.5 93 93 Calm 29.97 1015 10 16.0934 N/A
2:35 am 02:35 Clear 60 15.4 58 14.4 94 94 NW 5 7 29.97 1015 10 16.0934 N/A
2:55 am 02:55 Clear 58 14.6 57 13.7 94 94 W 5 7 29.97 1015 10 16.0934 N/A
3:15 am 03:15 Clear 57 13.9 55 12.9 94 94 NW 7 11 29.97 1015 10 16.0934 N/A
3:35 am 03:35 Clear 58 14.4 56 13.5 94 94 WNW 8 13 29.97 1015 10 16.0934 N/A
3:55 am 03:55 Clear 59 15 57 14 94 94 WNW 6 9 29.97 1015 10 16.0934 N/A
4:15 am 04:15 Clear 58 14.3 56 13.5 95 95 NW 6 9 29.97 1015 10 16.0934 N/A
4:35 am 04:35 Clear 57 14.1 56 13.2 94 94 NW 7 11 29.97 1015 10 16.0934 N/A
4:55 am 04:55 Clear 57 14 56 13.2 95 95 NW 7 11 29.97 1015 10 16.0934 N/A
5:15 am 05:15 Clear 57 14.1 56 13.2 94 94 WNW 7 11 30 1016 10 16.0934 N/A
5:35 am 05:35 Clear 58 14.3 56 13.5 95 95 WNW 7 11 30 1016 10 16.0934 N/A
5:55 am 05:55 Clear 58 14.6 57 13.7 94 94 WNW 7 11 30 1016 10 16.0934 N/A
6:15 am 06:15 Sunny 58 14.5 56 13.6 94 94 WNW 9 15 30 1016 10 16.0934 N/A
6:35 am 06:35 Sunny 59 15 57 14.1 94 94 WNW 9 15 30 1016 10 16.0934 N/A
6:55 am 06:55 Sunny 60 15.6 58 14.5 93 93 WNW 8 13 30 1016 10 16.0934 N/A
7:15 am 07:15 Sunny 61 16.1 59 14.9 93 93 WNW 8 13 30 1016 10 16.0934 N/A
7:35 am 07:35 Sunny 62 16.6 59 15.2 92 92 WNW 9 15 29.97 1015 10 16.0934 N/A
7:55 am 07:55 Sunny 63 17.3 60 15.5 89 89 WNW 10 17 29.97 1015 10 16.0934 N/A
8:15 am 08:15 Sunny 65 18.3 61 15.9 86 86 NW 8 13 29.97 1015 10 16.0934 N/A
8:35 am 08:35 Sunny 67 19.2 61 16 82 82 WNW 10 17 29.97 1015 10 16.0934 N/A
8:55 am 08:55 Sunny 69 20.3 62 16.4 78 78 WNW 8 13 29.97 1015 10 16.0934 N/A
9:15 am 09:15 Sunny 71 21.5 63 17 76 76 WNW 8 13 29.94 1014 10 16.0934 N/A
9:35 am 09:35 Sunny 73 22.5 63 17 71 71 WNW 9 15 29.94 1014 10 16.0934 N/A
9:55 am 09:55 Sunny 74 23.4 64 17.5 70 70 NW 8 13 29.94 1014 10 16.0934 N/A
10:15 am 10:15 Sunny 76 24.2 63 17.2 65 65 NW 7 11 29.91 1013 10 16.0934 N/A
10:35 am 10:35 Sunny 78 25.4 63 17.1 60 60 NNW 5 7 29.91 1013 10 16.0934 N/A
10:55 am 10:55 Hazy 79 26.1 60 15.4 52 52 NNW 10 17 29.91 1013 5 8.0467 N/A
11:15 am 11:15 Sunny 80 26.6 56 13.6 45 45 N 12 19 29.91 1013 10 16.0934 N/A
11:35 am 11:35 Sunny 81 27.1 56 13.5 43 43 WNW 10 17 29.91 1013 10 16.0934 N/A
11:55 am 11:55 Sunny 82 27.6 55 12.7 40 40 NW 10 17 29.88 1012 10 16.0934 N/A
12:15 pm 12:15 Sunny 82 27.7 53 11.4 36 36 NNW 7 11 29.88 1012 10 16.0934 N/A
12:35 pm 12:35 Sunny 82 28 54 12.2 38 38 NW 12 19 29.88 1012 10 16.0934 N/A
12:55 pm 12:55 Sunny 82 28 53 11.4 36 36 N 12 19 29.88 1012 10 16.0934 N/A
1:15 pm 13:15 Sunny 83 28.4 55 13 39 39 WNW 3 6 29.88 1012 10 16.0934 N/A
1:35 pm 13:35 Sunny 82 27.8 53 11.5 36 36 NNW 10 17 29.88 1012 10 16.0934 N/A
1:55 pm 13:55 Mostly Cloudy 82 27.5 57 13.8 43 43 NW 7 11 29.88 1012 10 16.0934 N/A
2:15 pm 14:15 Mostly Cloudy 84 28.9 57 13.9 40 40 WNW 8 13 29.85 1011 10 16.0934 N/A
2:55 pm 14:55 Partly Cloudy 84 29.1 56 13.3 38 38 N 5 7 29.85 1011 10 16.0934 N/A
3:15 pm 15:15 Mostly Cloudy with Haze 83 28.2 55 13 39 39 W 3 6 29.85 1011 5 8.0467 N/A
3:35 pm 15:35 Mostly Cloudy 84 28.9 55 12.6 37 37 N 5 7 29.85 1011 10 16.0934 N/A
3:55 pm 15:55 Cloudy 85 29.3 56 13.3 37 37 WSW 5 7 29.85 1011 10 16.0934 N/A
4:15 pm 16:15 Mostly Cloudy 83 28.4 56 13.2 39 39 N 3 6 29.85 1011 10 16.0934 N/A
4:35 pm 16:35 Mostly Cloudy 83 28.2 54 12.3 37 37 Calm 29.85 1011 10 16.0934 N/A
4:55 pm 16:55 Partly Cloudy 83 28.5 55 12.7 38 38 NNW 8 13 29.83 1010 10 16.0934 N/A
5:15 pm 17:15 Partly Cloudy 83 28.5 55 12.8 38 38 WNW 8 13 29.83 1010 7 11.26538 N/A
5:35 pm 17:35 Partly Cloudy 81 27.3 56 13.1 42 42 W 5 7 29.83 1010 10 16.0934 N/A
5:55 pm 17:55 Partly Cloudy 83 28.1 56 13.2 40 40 N 7 11 29.83 1010 7 11.26538 N/A
6:15 pm 18:15 Partly Cloudy 83 28.1 59 15 45 45 Calm 29.83 1010 10 16.0934 N/A
6:35 pm 18:35 Mostly Cloudy 86 30.1 50 9.9 28 28 Calm 29.83 1010 7 11.26538 N/A
6:55 pm 18:55 Mostly Cloudy 84 28.8 56 13.5 39 39 Calm 29.83 1010 10 16.0934 N/A
7:15 pm 19:15 Cloudy 84 28.9 57 13.7 39 39 Calm 29.83 1010 10 16.0934 N/A
7:35 pm 19:35 Mostly Cloudy 82 27.6 59 14.9 46 46 NNE 3 6 29.83 1010 10 16.0934 N/A
7:55 pm 19:55 Hazy 82 27.6 59 15 46 46 NNE 3 6 29.83 1010 5 8.0467 N/A
8:15 pm 20:15 Sunny 80 26.5 63 17.4 57 57 Calm 29.83 1010 10 16.0934 N/A
8:35 pm 20:35 Sunny 80 26.7 56 13.1 43 43 E 3 6 29.83 1010 10 16.0934 N/A
8:55 pm 20:55 Sunny 78 25.6 55 12.8 45 45 Calm 29.85 1011 10 16.0934 N/A
9:15 pm 21:15 Clear 75 24 56 13.6 52 52 E 3 6 29.85 1011 10 16.0934 N/A
9:35 pm 21:35 Clear 74 23.4 56 13.4 54 54 Calm 29.88 1012 10 16.0934 N/A
9:55 pm 21:55 Clear 71 21.8 58 14.4 63 63 SSE 3 6 29.88 1012 7 11.26538 N/A
10:15 pm 22:15 Clear 70 21.3 58 14.4 65 65 S 5 7 29.88 1012 10 16.0934 N/A
10:35 pm 22:35 Clear 70 21.2 56 13.5 62 62 Calm 29.88 1012 10 16.0934 N/A
10:55 pm 22:55 Clear 67 19.6 58 14.5 73 73 SSE 3 6 29.88 1012 10 16.0934 N/A
11:15 pm 23:15 Clear 67 19.6 58 14.6 73 73 S 3 6 29.88 1012 10 16.0934 N/A
11:35 pm 23:35 Clear 68 20.1 59 15 73 73 SSE 5 7 29.88 1012 10 16.0934 N/A
11:55 pm 23:55 Clear 68 19.9 58 14.5 71 71 S 5 7 29.88 1012 10 16.0934 N/A

Powered by AerisWeather